PUA1502 SULS-SABE

Flight info

Callsign PUA1502
Flight time 0h 40m
Altitude 18000
Route LUCIO A306 UGIMI UGIMI8R
Aircraft A320/M-SDE3FGHIRWY/LB1

Departure

Time 2026-04-26 21:00
Airport Capitan Corbeta CA Curbelo International Airport (SULS)

Arrival

Time 2026-04-26 21:41
Airport Aeroparque Jorge Newbery (SABE)
Time Latitude Longitude Altitude Speed Heading
2026-04-26 20:08 -34.85963 -55.09897 101 ft 0 kts 163°
2026-04-26 20:18 -34.85962 -55.09897 100 ft 0 kts 163°
2026-04-26 20:34 -34.85961 -55.09897 100 ft 0 kts 163°
2026-04-26 20:45 -34.85961 -55.09898 100 ft 0 kts 163°
2026-04-26 20:48 -34.85976 -55.09890 99 ft 5 kts 152°
2026-04-26 20:49 -34.85992 -55.09845 100 ft 7 kts 83°
2026-04-26 20:49 -34.85956 -55.09803 100 ft 6 kts
2026-04-26 20:49 -34.85916 -55.09816 100 ft 6 kts 342°
2026-04-26 20:49 -34.85879 -55.09830 100 ft 5 kts 342°
2026-04-26 20:50 -34.85833 -55.09847 100 ft 8 kts 342°
2026-04-26 20:50 -34.85812 -55.09855 100 ft 0 kts 342°
2026-04-26 20:51 -34.85809 -55.09856 100 ft 2 kts 342°
2026-04-26 20:51 -34.85786 -55.09866 101 ft 5 kts 342°
2026-04-26 20:51 -34.85758 -55.09877 101 ft 0 kts 340°
2026-04-26 20:55 -34.85750 -55.09880 101 ft 3 kts 340°
2026-04-26 20:56 -34.85709 -55.09897 101 ft 9 kts 342°
2026-04-26 20:56 -34.85641 -55.09885 102 ft 13 kts 48°
2026-04-26 20:56 -34.85594 -55.09728 103 ft 16 kts 72°
2026-04-26 20:56 -34.85570 -55.09636 103 ft 18 kts 71°
2026-04-26 20:57 -34.85529 -55.09484 102 ft 20 kts 72°
2026-04-26 20:57 -34.85487 -55.09318 103 ft 22 kts 72°
2026-04-26 20:57 -34.85441 -55.09134 100 ft 21 kts 77°
2026-04-26 20:57 -34.85418 -55.09008 99 ft 11 kts 345°
2026-04-26 20:58 -34.85409 -55.09035 101 ft 0 kts 250°
2026-04-26 20:59 -34.85410 -55.09038 101 ft 8 kts 250°
2026-04-26 21:00 -34.85506 -55.09397 102 ft 78 kts 252°
2026-04-26 21:00 -34.85732 -55.10241 102 ft 129 kts 254°
2026-04-26 21:00 -34.86044 -55.11322 574 ft 136 kts 257°
2026-04-26 21:00 -34.86330 -55.12402 1279 ft 133 kts 256°
2026-04-26 21:01 -34.86614 -55.13507 1806 ft 140 kts 255°
2026-04-26 21:01 -34.86907 -55.14650 2415 ft 142 kts 255°
2026-04-26 21:01 -34.87196 -55.15782 3034 ft 141 kts 255°
2026-04-26 21:01 -34.87493 -55.16937 3661 ft 141 kts 254°
2026-04-26 21:02 -34.87781 -55.18056 4286 ft 140 kts 254°
2026-04-26 21:02 -34.88073 -55.19180 4907 ft 138 kts 254°
2026-04-26 21:02 -34.88361 -55.20291 5522 ft 137 kts 254°
2026-04-26 21:02 -34.88646 -55.21389 6160 ft 135 kts 254°
2026-04-26 21:03 -34.88926 -55.22470 6767 ft 133 kts 254°
2026-04-26 21:03 -34.89195 -55.23530 7380 ft 129 kts 258°
2026-04-26 21:03 -34.89289 -55.24603 7934 ft 129 kts 264°
2026-04-26 21:03 -34.89361 -55.25746 8326 ft 141 kts 265°
2026-04-26 21:04 -34.89438 -55.26991 8736 ft 153 kts 265°
2026-04-26 21:04 -34.89521 -55.28335 9154 ft 165 kts 265°
2026-04-26 21:04 -34.89608 -55.29785 9570 ft 178 kts 265°
2026-04-26 21:04 -34.89702 -55.31368 9902 ft 199 kts 265°
2026-04-26 21:05 -34.89809 -55.33150 10231 ft 222 kts 265°
2026-04-26 21:05 -34.89929 -55.35109 10619 ft 242 kts 265°
2026-04-26 21:05 -34.90062 -55.37232 11009 ft 261 kts 265°
2026-04-26 21:05 -34.90201 -55.39509 11399 ft 278 kts 266°
2026-04-26 21:06 -34.90345 -55.41915 11799 ft 290 kts 266°
2026-04-26 21:06 -34.90493 -55.44383 12188 ft 294 kts 266°
2026-04-26 21:06 -34.90640 -55.46877 12674 ft 295 kts 266°
2026-04-26 21:06 -34.90789 -55.49354 13355 ft 299 kts 266°
2026-04-26 21:07 -34.90940 -55.51893 13991 ft 302 kts 266°
2026-04-26 21:07 -34.91092 -55.54448 14608 ft 302 kts 266°
2026-04-26 21:07 -34.91246 -55.56992 15242 ft 300 kts 266°
2026-04-26 21:07 -34.91394 -55.59513 15885 ft 297 kts 266°
2026-04-26 21:08 -34.91539 -55.62013 16545 ft 294 kts 267°
2026-04-26 21:08 -34.91683 -55.64488 17231 ft 292 kts 267°
2026-04-26 21:08 -34.91828 -55.66950 17708 ft 291 kts 267°
2026-04-26 21:08 -34.91972 -55.69410 17809 ft 296 kts 267°
2026-04-26 21:09 -34.92118 -55.71941 17817 ft 302 kts 266°
2026-04-26 21:09 -34.92266 -55.74509 17821 ft 304 kts 266°
2026-04-26 21:09 -34.92414 -55.77082 17820 ft 305 kts 266°
2026-04-26 21:09 -34.92560 -55.79663 17826 ft 306 kts 266°
2026-04-26 21:10 -34.92708 -55.82253 17830 ft 307 kts 266°
2026-04-26 21:10 -34.92858 -55.84855 17830 ft 308 kts 266°
2026-04-26 21:10 -34.93007 -55.87461 17830 ft 309 kts 266°
2026-04-26 21:10 -34.93154 -55.90071 17836 ft 310 kts 266°
2026-04-26 21:11 -34.93299 -55.92693 17836 ft 310 kts 266°
2026-04-26 21:11 -34.93440 -55.95282 17839 ft 311 kts 266°
2026-04-26 21:11 -34.93584 -55.97915 17836 ft 311 kts 266°
2026-04-26 21:11 -34.93734 -56.00581 17839 ft 312 kts 266°
2026-04-26 21:12 -34.93880 -56.03185 17834 ft 312 kts 266°
2026-04-26 21:12 -34.94027 -56.05822 17835 ft 312 kts 266°
2026-04-26 21:12 -34.94172 -56.08463 17836 ft 313 kts 266°
2026-04-26 21:12 -34.94313 -56.11110 17832 ft 313 kts 266°
2026-04-26 21:13 -34.94455 -56.13759 17833 ft 314 kts 266°
2026-04-26 21:13 -34.94597 -56.16419 17833 ft 314 kts 266°
2026-04-26 21:13 -34.94738 -56.19076 17831 ft 314 kts 266°
2026-04-26 21:13 -34.94882 -56.21732 17831 ft 315 kts 266°
2026-04-26 21:14 -34.95028 -56.24391 17835 ft 315 kts 266°
2026-04-26 21:14 -34.95174 -56.27057 17831 ft 315 kts 266°
2026-04-26 21:14 -34.95318 -56.29724 17831 ft 315 kts 266°
2026-04-26 21:14 -34.95460 -56.32393 17828 ft 316 kts 266°
2026-04-26 21:15 -34.95596 -56.35064 17825 ft 316 kts 266°
2026-04-26 21:15 -34.95734 -56.37739 17819 ft 317 kts 266°
2026-04-26 21:15 -34.95874 -56.40422 17827 ft 317 kts 266°
2026-04-26 21:15 -34.96016 -56.43106 17821 ft 317 kts 266°
2026-04-26 21:16 -34.96156 -56.45794 17828 ft 318 kts 266°
2026-04-26 21:16 -34.96294 -56.48484 17831 ft 318 kts 266°
2026-04-26 21:16 -34.96431 -56.51138 17831 ft 318 kts 266°
2026-04-26 21:16 -34.96571 -56.53830 17829 ft 319 kts 266°
2026-04-26 21:17 -34.96709 -56.56529 17829 ft 319 kts 266°
2026-04-26 21:17 -34.96843 -56.59230 17830 ft 319 kts 266°
2026-04-26 21:17 -34.96977 -56.61930 17830 ft 320 kts 266°
2026-04-26 21:17 -34.97112 -56.64639 17834 ft 320 kts 266°
2026-04-26 21:18 -34.97248 -56.67354 17835 ft 321 kts 266°
2026-04-26 21:18 -34.97383 -56.70074 17823 ft 322 kts 266°
2026-04-26 21:18 -34.97518 -56.72798 17826 ft 322 kts 266°
2026-04-26 21:18 -34.97654 -56.75527 17837 ft 323 kts 266°
2026-04-26 21:19 -34.97791 -56.78266 17835 ft 324 kts 266°
2026-04-26 21:19 -34.97927 -56.81002 17838 ft 324 kts 266°
2026-04-26 21:19 -34.98060 -56.83750 17834 ft 325 kts 266°
2026-04-26 21:19 -34.98194 -56.86502 17832 ft 326 kts 265°
2026-04-26 21:20 -34.98314 -56.89261 17842 ft 326 kts 267°
2026-04-26 21:20 -34.98354 -56.92038 17846 ft 328 kts 268°
2026-04-26 21:20 -34.98340 -56.94818 17848 ft 328 kts 269°
2026-04-26 21:20 -34.98304 -56.97605 17850 ft 329 kts 269°
2026-04-26 21:21 -34.98267 -57.00395 17854 ft 329 kts 269°
2026-04-26 21:21 -34.98238 -57.03180 17855 ft 329 kts 269°
2026-04-26 21:21 -34.98216 -57.05970 17875 ft 328 kts 269°
2026-04-26 21:21 -34.98202 -57.08714 17880 ft 328 kts 268°
2026-04-26 21:22 -34.98191 -57.11489 17893 ft 327 kts 268°
2026-04-26 21:22 -34.98177 -57.14226 17874 ft 316 kts 268°
2026-04-26 21:22 -34.98162 -57.16881 17871 ft 312 kts 268°
2026-04-26 21:23 -34.98132 -57.22162 17873 ft 311 kts 268°
2026-04-26 21:23 -34.98117 -57.24800 17874 ft 311 kts 268°
2026-04-26 21:23 -34.98103 -57.27429 17877 ft 310 kts 268°
2026-04-26 21:23 -34.98089 -57.30064 17881 ft 310 kts 268°
2026-04-26 21:24 -34.98074 -57.32693 17879 ft 310 kts 268°
2026-04-26 21:24 -34.98059 -57.35317 17874 ft 310 kts 268°
2026-04-26 21:24 -34.98042 -57.37943 17879 ft 310 kts 268°
2026-04-26 21:24 -34.98024 -57.40571 17830 ft 310 kts 268°
2026-04-26 21:25 -34.98003 -57.43150 17643 ft 297 kts 268°
2026-04-26 21:25 -34.97981 -57.45613 17506 ft 284 kts 268°
2026-04-26 21:25 -34.97962 -57.47968 17323 ft 273 kts 268°
2026-04-26 21:25 -34.97946 -57.50262 17049 ft 270 kts 268°
2026-04-26 21:26 -34.97930 -57.52550 16786 ft 269 kts 268°
2026-04-26 21:26 -34.97914 -57.54778 16533 ft 264 kts 268°
2026-04-26 21:26 -34.97896 -57.56998 16273 ft 262 kts 268°
2026-04-26 21:26 -34.97877 -57.59260 16009 ft 271 kts 268°
2026-04-26 21:27 -34.97857 -57.61570 15565 ft 273 kts 268°
2026-04-26 21:27 -34.97836 -57.63888 15108 ft 274 kts 268°
2026-04-26 21:27 -34.97817 -57.66212 14659 ft 275 kts 268°
2026-04-26 21:27 -34.97796 -57.68545 14207 ft 276 kts 268°
2026-04-26 21:28 -34.97774 -57.70899 13736 ft 279 kts 268°
2026-04-26 21:28 -34.97752 -57.73278 13180 ft 282 kts 268°
2026-04-26 21:28 -34.97729 -57.75681 12639 ft 284 kts 268°
2026-04-26 21:28 -34.97704 -57.78101 12107 ft 286 kts 268°
2026-04-26 21:29 -34.97676 -57.80533 11584 ft 288 kts 268°
2026-04-26 21:29 -34.97649 -57.82975 11067 ft 288 kts 267°
2026-04-26 21:29 -34.97623 -57.85423 10560 ft 289 kts 268°
2026-04-26 21:29 -34.97387 -57.87865 10058 ft 294 kts 281°
2026-04-26 21:30 -34.96562 -57.90155 9677 ft 298 kts 297°
2026-04-26 21:30 -34.95204 -57.92068 9353 ft 302 kts 313°
2026-04-26 21:30 -34.93557 -57.93643 9023 ft 298 kts 315°
2026-04-26 21:30 -34.91930 -57.95177 8701 ft 294 kts 315°
2026-04-26 21:31 -34.90324 -57.96692 8384 ft 290 kts 315°
2026-04-26 21:31 -34.88768 -57.98160 8058 ft 281 kts 315°
2026-04-26 21:31 -34.87258 -57.99574 7738 ft 267 kts 314°
2026-04-26 21:31 -34.85820 -58.00920 7443 ft 255 kts 314°
2026-04-26 21:32 -34.84438 -58.02214 7139 ft 248 kts 313°
2026-04-26 21:32 -34.83079 -58.03499 6780 ft 248 kts 313°
2026-04-26 21:32 -34.81721 -58.04788 6454 ft 249 kts 313°
2026-04-26 21:32 -34.80347 -58.06092 6116 ft 250 kts 313°
2026-04-26 21:33 -34.78979 -58.07387 5771 ft 247 kts 313°
2026-04-26 21:33 -34.77641 -58.08644 5426 ft 241 kts 313°
2026-04-26 21:33 -34.76325 -58.09879 5087 ft 238 kts 313°
2026-04-26 21:33 -34.75021 -58.11100 4752 ft 235 kts 313°
2026-04-26 21:34 -34.74014 -58.12048 4486 ft 234 kts 313°
2026-04-26 21:34 -34.72734 -58.13253 4154 ft 232 kts 313°
2026-04-26 21:34 -34.71457 -58.14455 3815 ft 232 kts 313°
2026-04-26 21:34 -34.70308 -58.15746 3481 ft 217 kts 301°
2026-04-26 21:35 -34.69466 -58.17191 3136 ft 204 kts 295°
2026-04-26 21:35 -34.68686 -58.18599 2811 ft 197 kts 295°
2026-04-26 21:35 -34.67931 -58.19955 2559 ft 192 kts 295°
2026-04-26 21:35 -34.67195 -58.21281 2523 ft 192 kts 295°
2026-04-26 21:36 -34.66450 -58.22628 2525 ft 192 kts 295°
2026-04-26 21:36 -34.65946 -58.23539 2525 ft 191 kts 295°
2026-04-26 21:36 -34.65002 -58.25222 2517 ft 174 kts 295°
2026-04-26 21:36 -34.64337 -58.26409 2362 ft 165 kts 294°
2026-04-26 21:37 -34.63707 -58.27535 2132 ft 158 kts 294°
2026-04-26 21:37 -34.63102 -58.28622 1925 ft 153 kts 294°
2026-04-26 21:37 -34.62517 -58.29674 1782 ft 145 kts 292°
2026-04-26 21:37 -34.61970 -58.30651 1738 ft 136 kts 292°
2026-04-26 21:38 -34.61448 -58.31596 1736 ft 134 kts 291°
2026-04-26 21:38 -34.60937 -58.32523 1760 ft 132 kts 291°
2026-04-26 21:38 -34.60428 -58.33445 1605 ft 129 kts 291°
2026-04-26 21:38 -34.59929 -58.34342 1415 ft 127 kts 292°
2026-04-26 21:39 -34.59435 -58.35230 1232 ft 127 kts 292°
2026-04-26 21:39 -34.58943 -58.36114 1048 ft 126 kts 292°
2026-04-26 21:39 -34.58451 -58.36992 859 ft 127 kts 293°
2026-04-26 21:39 -34.57984 -58.37895 697 ft 127 kts 293°
2026-04-26 21:40 -34.57500 -58.38778 518 ft 128 kts 298°
2026-04-26 21:40 -34.56993 -58.39666 309 ft 127 kts 296°
2026-04-26 21:40 -34.56500 -58.40555 99 ft 127 kts 297°
2026-04-26 21:40 -34.56039 -58.41384 26 ft 98 kts 301°
2026-04-26 21:41 -34.55804 -58.41813 24 ft 44 kts 303°
2026-04-26 21:41 -34.55701 -58.41907 29 ft 10 kts 20°
2026-04-26 21:41 -34.55688 -58.41897 29 ft 3 kts 34°
2026-04-26 21:42 -34.55685 -58.41894 28 ft 2 kts 36°
2026-04-26 21:43 -34.55662 -58.41875 30 ft 5 kts 35°
2026-04-26 21:43 -34.55628 -58.41839 26 ft 3 kts 54°
2026-04-26 21:43 -34.55626 -58.41835 26 ft 0 kts 59°
2026-04-26 21:44 -34.55630 -58.41818 27 ft 12 kts 112°
2026-04-26 21:44 -34.55699 -58.41809 28 ft 12 kts 144°
2026-04-26 21:44 -34.55743 -58.41732 27 ft 12 kts 117°
2026-04-26 21:44 -34.55780 -58.41641 28 ft 11 kts 115°
2026-04-26 21:45 -34.55756 -58.41582 25 ft 7 kts 19°
2026-04-26 21:45 -34.55715 -58.41601 28 ft 6 kts 351°
2026-04-26 21:45 -34.55670 -58.41585 28 ft 6 kts 21°
2026-04-26 21:45 -34.55656 -58.41579 29 ft 0 kts 23°